Time,TemperatureF,DewpointF,PressureIn,WindDirection,WindDirectionDegrees,WindSpeedMPH,WindSpeedGustMPH,Humidity,HourlyPrecipIn,Conditions,Clouds,dailyrainin,SoftwareType,DateUTC
2013-04-25 00:01:00,49.0,22.0,29.76,SSW,202,0.0,5.0,34,-99.99,,,0.00,,2013-04-25 07:01:00,
2013-04-25 00:11:00,49.0,22.0,29.76,SSW,202,0.0,5.0,34,-99.99,,,0.00,,2013-04-25 07:11:00,
2013-04-25 00:21:00,48.0,22.0,29.76,SSW,202,0.0,1.0,35,-99.99,,,0.00,,2013-04-25 07:21:00,
2013-04-25 00:31:00,48.0,22.0,29.76,SSW,202,0.0,1.0,35,-99.99,,,0.00,,2013-04-25 07:31:00,
2013-04-25 00:42:00,47.0,22.0,29.77,SSW,202,0.0,1.0,37,-99.99,,,0.00,,2013-04-25 07:42:00,
2013-04-25 01:01:00,45.0,22.0,29.78,SSW,202,4.0,6.0,39,-99.99,,,0.00,,2013-04-25 08:01:00,
2013-04-25 01:21:00,43.0,21.0,29.79,SSW,202,2.0,4.0,41,-99.99,,,0.00,,2013-04-25 08:21:00,
2013-04-25 01:31:00,43.0,20.0,29.79,SSW,202,3.0,4.0,40,-99.99,,,0.00,,2013-04-25 08:31:00,
2013-04-25 01:41:00,43.0,20.0,29.79,SSW,202,3.0,4.0,40,-99.99,,,0.00,,2013-04-25 08:41:00,
2013-04-25 01:52:00,45.0,20.0,29.76,SSW,202,0.0,10.0,37,-99.99,,,0.00,,2013-04-25 08:52:00,
2013-04-25 02:01:00,42.0,19.0,29.79,SSW,202,4.0,10.0,39,-99.99,,,0.00,,2013-04-25 09:01:00,
2013-04-25 02:11:00,42.0,19.0,29.79,SSW,202,4.0,10.0,39,-99.99,,,0.00,,2013-04-25 09:11:00,
2013-04-25 02:21:00,44.0,19.0,29.77,SSW,202,1.0,6.0,37,-99.99,,,0.00,,2013-04-25 09:21:00,
2013-04-25 02:32:00,41.0,18.0,29.79,SSW,196,0.0,6.0,40,-99.99,,,0.00,,2013-04-25 09:32:00,
2013-04-25 02:42:00,41.0,18.0,29.79,SSW,196,0.0,6.0,40,-99.99,,,0.00,,2013-04-25 09:42:00,
2013-04-25 02:52:00,40.0,18.0,29.80,SSW,197,0.0,4.0,41,-99.99,,,0.00,,2013-04-25 09:52:00,
2013-04-25 03:02:00,39.0,19.0,29.82,SSW,197,1.0,4.0,43,-99.99,,,0.00,,2013-04-25 10:02:00,
2013-04-25 03:12:00,39.0,19.0,29.82,SSW,197,1.0,4.0,43,-99.99,,,0.00,,2013-04-25 10:12:00,
2013-04-25 03:22:00,39.0,18.0,29.82,SSW,197,2.0,4.0,43,-99.99,,,0.00,,2013-04-25 10:22:00,
2013-04-25 03:32:00,39.0,19.0,29.82,SSW,197,1.0,4.0,44,-99.99,,,0.00,,2013-04-25 10:32:00,
2013-04-25 03:42:00,39.0,19.0,29.82,SSW,197,1.0,4.0,44,-99.99,,,0.00,,2013-04-25 10:42:00,
2013-04-25 03:53:00,40.0,20.0,29.81,SSW,196,2.0,6.0,44,-99.99,,,0.00,,2013-04-25 10:53:00,
2013-04-25 04:02:00,41.0,20.0,29.81,SSW,197,2.0,6.0,42,-99.99,,,0.00,,2013-04-25 11:02:00,
2013-04-25 04:22:00,40.0,20.0,29.81,SSW,197,0.0,3.0,43,-99.99,,,0.00,,2013-04-25 11:22:00,
2013-04-25 04:32:00,38.0,19.0,29.82,SSW,197,0.0,3.0,47,-99.99,,,0.00,,2013-04-25 11:32:00,
2013-04-25 04:42:00,38.0,19.0,29.82,SSW,197,0.0,3.0,47,-99.99,,,0.00,,2013-04-25 11:42:00,
2013-04-25 04:52:00,36.0,20.0,29.84,SSW,197,0.0,3.0,50,-99.99,,,0.00,,2013-04-25 11:52:00,
2013-04-25 05:01:00,36.0,20.0,29.85,SSW,196,0.0,3.0,51,-99.99,,,0.00,,2013-04-25 12:01:00,
2013-04-25 05:12:00,36.0,20.0,29.85,SSW,196,0.0,3.0,51,-99.99,,,0.00,,2013-04-25 12:12:00,
2013-04-25 05:21:00,36.0,20.0,29.85,SSW,196,0.0,0.0,52,-99.99,,,0.00,,2013-04-25 12:21:00,
2013-04-25 05:31:00,36.0,20.0,29.85,SSW,197,0.0,1.0,52,-99.99,,,0.00,,2013-04-25 12:31:00,
2013-04-25 05:41:00,36.0,20.0,29.85,SSW,197,0.0,1.0,52,-99.99,,,0.00,,2013-04-25 12:41:00,
2013-04-25 05:52:00,36.0,20.0,29.85,SSW,197,0.0,0.0,52,-99.99,,,0.00,,2013-04-25 12:52:00,
2013-04-25 06:02:00,36.0,21.0,29.86,SSW,196,0.0,1.0,54,-99.99,,,0.00,,2013-04-25 13:02:00,
2013-04-25 06:11:00,36.0,21.0,29.86,SSW,196,0.0,1.0,54,-99.99,,,0.00,,2013-04-25 13:11:00,
2013-04-25 06:21:00,36.0,20.0,29.85,SSW,196,2.0,3.0,53,-99.99,,,0.00,,2013-04-25 13:21:00,
2013-04-25 06:31:00,36.0,20.0,29.86,SSW,196,1.0,3.0,52,-99.99,,,0.00,,2013-04-25 13:31:00,
2013-04-25 06:42:00,36.0,20.0,29.86,SSW,196,1.0,3.0,52,-99.99,,,0.00,,2013-04-25 13:42:00,
2013-04-25 06:52:00,35.0,20.0,29.89,SSW,197,1.0,4.0,53,-99.99,,,0.00,,2013-04-25 13:52:00,
2013-04-25 07:01:00,38.0,22.0,29.88,SSW,197,0.0,4.0,51,-99.99,,,0.00,,2013-04-25 14:01:00,
2013-04-25 07:11:00,38.0,22.0,29.88,SSW,197,0.0,4.0,51,-99.99,,,0.00,,2013-04-25 14:11:00,
2013-04-25 07:21:00,41.0,22.0,29.85,SSW,197,0.0,2.0,47,-99.99,,,-99.99,,2013-04-25 14:21:00,
2013-04-25 07:32:00,43.0,23.0,29.84,SSW,196,2.0,4.0,45,-99.99,,,0.00,,2013-04-25 14:32:00,
2013-04-25 07:42:00,43.0,23.0,29.84,SSW,196,2.0,4.0,45,-99.99,,,0.00,,2013-04-25 14:42:00,
2013-04-25 07:52:00,46.0,24.0,29.84,SSW,197,0.0,4.0,42,-99.99,,,0.00,,2013-04-25 14:52:00,
2013-04-25 08:01:00,51.0,26.0,29.79,SSW,197,0.0,4.0,38,-99.99,,,0.00,,2013-04-25 15:01:00,
2013-04-25 08:21:00,53.0,24.0,29.77,South,188,10.0,10.0,32,-99.99,,,0.00,,2013-04-25 15:21:00,
2013-04-25 08:33:00,53.0,23.0,29.77,SSE,155,7.0,14.0,31,-99.99,,,0.00,,2013-04-25 15:33:00,
2013-04-25 08:42:00,53.0,23.0,29.77,SSE,155,7.0,14.0,31,-99.99,,,0.00,,2013-04-25 15:42:00,
2013-04-25 08:53:00,54.0,23.0,29.77,SSE,153,4.0,16.0,30,-99.99,,,0.00,,2013-04-25 15:53:00,
2013-04-25 09:02:00,55.0,23.0,29.77,South,177,7.0,16.0,29,-99.99,,,-99.99,,2013-04-25 16:02:00,
2013-04-25 09:13:00,55.0,23.0,29.77,South,177,7.0,16.0,29,-99.99,,,-99.99,,2013-04-25 16:13:00,
2013-04-25 09:24:00,55.0,19.0,29.76,South,182,9.0,28.0,24,-99.99,,,0.00,,2013-04-25 16:24:00,
2013-04-25 09:32:00,56.0,21.0,29.75,SW,223,19.0,28.0,25,-99.99,,,0.00,,2013-04-25 16:32:00,
2013-04-25 09:42:00,56.0,21.0,29.75,SW,223,19.0,28.0,25,-99.99,,,0.00,,2013-04-25 16:42:00,
2013-04-25 09:52:00,56.0,19.0,29.75,South,188,9.0,25.0,23,-99.99,,,0.00,,2013-04-25 16:52:00,
2013-04-25 10:02:00,56.0,20.0,29.75,South,178,15.0,26.0,24,-99.99,,,0.00,,2013-04-25 17:02:00,
2013-04-25 10:11:00,56.0,20.0,29.75,South,178,15.0,26.0,24,-99.99,,,0.00,,2013-04-25 17:11:00,
2013-04-25 10:22:00,57.0,21.0,29.75,South,185,19.0,25.0,24,-99.99,,,0.00,,2013-04-25 17:22:00,
2013-04-25 10:31:00,56.0,22.0,29.76,South,179,17.0,25.0,26,-99.99,,,0.00,,2013-04-25 17:31:00,
2013-04-25 10:42:00,56.0,22.0,29.76,South,179,17.0,25.0,26,-99.99,,,0.00,,2013-04-25 17:42:00,
2013-04-25 10:53:00,57.0,21.0,29.76,SSW,213,16.0,24.0,25,-99.99,,,0.00,,2013-04-25 17:53:00,
2013-04-25 11:01:00,56.0,24.0,29.77,SSW,211,18.0,24.0,28,-99.99,,,0.00,,2013-04-25 18:01:00,
2013-04-25 11:11:00,56.0,24.0,29.77,SSW,211,18.0,24.0,28,-99.99,,,0.00,,2013-04-25 18:11:00,
2013-04-25 11:21:00,57.0,17.0,29.76,SSW,196,26.0,26.0,21,-99.99,,,0.00,,2013-04-25 18:21:00,
2013-04-25 11:31:00,58.0,17.0,29.75,South,169,15.0,29.0,20,-99.99,,,0.00,,2013-04-25 18:31:00,
2013-04-25 11:42:00,58.0,17.0,29.75,South,169,15.0,29.0,20,-99.99,,,0.00,,2013-04-25 18:42:00,
2013-04-25 11:52:00,58.0,22.0,29.80,South,186,6.0,28.0,24,-99.99,,,0.00,,2013-04-25 18:52:00,
2013-04-25 12:01:00,59.0,20.0,29.78,SW,214,21.0,28.0,22,-99.99,,,0.00,,2013-04-25 19:01:00,
2013-04-25 12:12:00,59.0,20.0,29.78,SW,214,21.0,28.0,22,-99.99,,,0.00,,2013-04-25 19:12:00,
2013-04-25 12:21:00,59.0,20.0,29.78,SSE,163,7.0,28.0,22,-99.99,,,0.00,,2013-04-25 19:21:00,
2013-04-25 12:31:00,59.0,21.0,29.78,WSW,244,12.0,31.0,23,-99.99,,,0.00,,2013-04-25 19:31:00,
2013-04-25 12:41:00,59.0,21.0,29.78,WSW,244,12.0,31.0,23,-99.99,,,0.00,,2013-04-25 19:41:00,
2013-04-25 12:52:00,59.0,23.0,29.80,SW,230,16.0,28.0,25,-99.99,,,0.00,,2013-04-25 19:52:00,
2013-04-25 13:01:00,59.0,23.0,29.80,SW,230,16.0,28.0,25,-99.99,,,0.00,,2013-04-25 20:01:00,
2013-04-25 13:11:00,59.0,23.0,29.80,South,180,9.0,29.0,25,-99.99,,,0.00,,2013-04-25 20:11:00,
2013-04-25 13:22:00,59.0,22.0,29.79,SSW,195,12.0,26.0,24,-99.99,,,0.00,,2013-04-25 20:22:00,
2013-04-25 13:32:00,59.0,23.0,29.79,SSE,157,20.0,30.0,25,-99.99,,,0.00,,2013-04-25 20:32:00,
2013-04-25 13:42:00,59.0,23.0,29.79,SSE,157,20.0,30.0,25,-99.99,,,0.00,,2013-04-25 20:42:00,
2013-04-25 13:52:00,58.0,17.0,29.83,South,190,14.0,32.0,20,-99.99,,,0.00,,2013-04-25 20:52:00,
2013-04-25 14:01:00,57.0,22.0,29.83,South,180,11.0,32.0,25,-99.99,,,0.00,,2013-04-25 21:01:00,
2013-04-25 14:11:00,57.0,22.0,29.83,South,180,11.0,32.0,25,-99.99,,,0.00,,2013-04-25 21:11:00,
2013-04-25 14:21:00,58.0,20.0,29.83,South,184,11.0,26.0,23,-99.99,,,0.00,,2013-04-25 21:21:00,
2013-04-25 14:33:00,57.0,22.0,29.85,SW,226,18.0,28.0,25,-99.99,,,0.00,,2013-04-25 21:33:00,
2013-04-25 14:42:00,57.0,22.0,29.85,SW,226,18.0,28.0,25,-99.99,,,0.00,,2013-04-25 21:42:00,
2013-04-25 14:52:00,57.0,19.0,29.83,WSW,253,14.0,22.0,22,-99.99,,,0.00,,2013-04-25 21:52:00,
2013-04-25 15:02:00,59.0,18.0,29.82,SE,143,13.0,22.0,20,-99.99,,,0.00,,2013-04-25 22:02:00,
2013-04-25 15:12:00,59.0,18.0,29.82,SE,143,13.0,22.0,20,-99.99,,,0.00,,2013-04-25 22:12:00,
2013-04-25 15:22:00,59.0,18.0,29.82,WSW,240,11.0,25.0,20,-99.99,,,0.00,,2013-04-25 22:22:00,
2013-04-25 15:32:00,58.0,22.0,29.81,WNW,292,22.0,26.0,24,-99.99,,,0.00,,2013-04-25 22:32:00,
2013-04-25 15:42:00,58.0,22.0,29.81,WNW,292,22.0,26.0,24,-99.99,,,0.00,,2013-04-25 22:42:00,
2013-04-25 15:52:00,58.0,18.0,29.83,West,269,12.0,24.0,21,-99.99,,,0.00,,2013-04-25 22:52:00,
2013-04-25 16:02:00,58.0,19.0,29.83,WSW,244,11.0,24.0,21,-99.99,,,0.00,,2013-04-25 23:02:00,
2013-04-25 16:12:00,58.0,19.0,29.83,WSW,244,11.0,24.0,21,-99.99,,,0.00,,2013-04-25 23:12:00,
2013-04-25 16:22:00,59.0,18.0,29.82,SW,221,8.0,17.0,20,-99.99,,,0.00,,2013-04-25 23:22:00,
2013-04-25 16:32:00,59.0,18.0,29.81,SSW,202,13.0,22.0,20,-99.99,,,0.00,,2013-04-25 23:32:00,
2013-04-25 16:41:00,59.0,18.0,29.81,SSW,202,13.0,22.0,20,-99.99,,,0.00,,2013-04-25 23:41:00,
2013-04-25 16:52:00,60.0,20.0,29.82,SSW,203,11.0,23.0,21,-99.99,,,0.00,,2013-04-25 23:52:00,
2013-04-25 17:01:00,59.0,21.0,29.84,SW,229,19.0,23.0,22,-99.99,,,0.00,,2013-04-26 00:01:00,
2013-04-25 17:11:00,59.0,21.0,29.84,SW,229,19.0,23.0,22,-99.99,,,0.00,,2013-04-26 00:11:00,
2013-04-25 17:21:00,59.0,20.0,29.84,South,182,13.0,23.0,22,-99.99,,,0.00,,2013-04-26 00:21:00,
2013-04-25 17:31:00,58.0,20.0,29.85,SSW,195,11.0,23.0,23,-99.99,,,0.00,,2013-04-26 00:31:00,
2013-04-25 17:41:00,58.0,20.0,29.85,SSW,195,11.0,23.0,23,-99.99,,,0.00,,2013-04-26 00:41:00,
2013-04-25 17:52:00,59.0,21.0,29.84,South,186,9.0,18.0,23,-99.99,,,0.00,,2013-04-26 00:52:00,
2013-04-25 18:01:00,59.0,20.0,29.85,SW,234,11.0,22.0,22,-99.99,,,0.00,,2013-04-26 01:01:00,
2013-04-25 18:11:00,59.0,20.0,29.85,SW,234,11.0,22.0,22,-99.99,,,0.00,,2013-04-26 01:11:00,
2013-04-25 18:21:00,58.0,22.0,29.85,SW,232,10.0,21.0,25,-99.99,,,0.00,,2013-04-26 01:21:00,
2013-04-25 18:31:00,57.0,21.0,29.87,WSW,238,13.0,22.0,25,-99.99,,,0.00,,2013-04-26 01:31:00,
2013-04-25 18:41:00,57.0,21.0,29.87,WSW,238,13.0,22.0,25,-99.99,,,0.00,,2013-04-26 01:41:00,
2013-04-25 18:52:00,56.0,23.0,29.84,SSW,203,11.0,20.0,28,-99.99,,,0.00,,2013-04-26 01:52:00,
2013-04-25 19:01:00,55.0,24.0,29.84,SSW,200,11.0,20.0,30,-99.99,,,0.00,,2013-04-26 02:01:00,
2013-04-25 19:11:00,55.0,24.0,29.84,SSW,200,11.0,20.0,30,-99.99,,,0.00,,2013-04-26 02:11:00,
2013-04-25 19:21:00,54.0,25.0,29.86,SSW,205,6.0,18.0,32,-99.99,,,0.00,,2013-04-26 02:21:00,
2013-04-25 19:31:00,54.0,26.0,29.86,SSW,198,14.0,19.0,34,-99.99,,,0.00,,2013-04-26 02:31:00,
2013-04-25 19:42:00,54.0,26.0,29.86,SSW,198,14.0,19.0,34,-99.99,,,0.00,,2013-04-26 02:42:00,
2013-04-25 19:52:00,53.0,27.0,29.81,SSW,200,8.0,21.0,36,-99.99,,,0.00,,2013-04-26 02:52:00,
2013-04-25 20:01:00,52.0,27.0,29.82,SSW,201,6.0,21.0,37,-99.99,,,0.00,,2013-04-26 03:01:00,
2013-04-25 20:11:00,52.0,27.0,29.82,SSW,201,6.0,21.0,37,-99.99,,,0.00,,2013-04-26 03:11:00,
2013-04-25 20:21:00,53.0,28.0,29.82,SW,219,8.0,20.0,38,-99.99,,,0.00,,2013-04-26 03:21:00,
2013-04-25 20:32:00,52.0,28.0,29.81,SW,218,15.0,24.0,39,-99.99,,,0.00,,2013-04-26 03:32:00,
2013-04-25 20:43:00,52.0,28.0,29.81,SW,218,15.0,24.0,39,-99.99,,,0.00,,2013-04-26 03:43:00,
2013-04-25 20:53:00,52.0,28.0,29.81,SSW,200,9.0,21.0,40,-99.99,,,0.00,,2013-04-26 03:53:00,
2013-04-25 21:02:00,52.0,29.0,29.82,SSW,200,14.0,22.0,41,-99.99,,,0.00,,2013-04-26 04:02:00,
2013-04-25 21:12:00,52.0,29.0,29.82,SSW,200,14.0,22.0,41,-99.99,,,0.00,,2013-04-26 04:12:00,
2013-04-25 21:22:00,52.0,29.0,29.83,SW,234,13.0,24.0,41,-99.99,,,0.00,,2013-04-26 04:22:00,
2013-04-25 21:32:00,52.0,29.0,29.85,SW,228,18.0,25.0,42,-99.99,,,0.00,,2013-04-26 04:32:00,
2013-04-25 21:43:00,52.0,29.0,29.85,SW,228,18.0,25.0,42,-99.99,,,0.00,,2013-04-26 04:43:00,
2013-04-25 21:53:00,52.0,29.0,29.85,SW,229,12.0,21.0,41,-99.99,,,0.00,,2013-04-26 04:53:00,
2013-04-25 22:02:00,51.0,29.0,29.87,SW,229,6.0,21.0,42,-99.99,,,0.00,,2013-04-26 05:02:00,
2013-04-25 22:12:00,51.0,29.0,29.87,SW,229,6.0,21.0,42,-99.99,,,0.00,,2013-04-26 05:12:00,
2013-04-25 22:22:00,51.0,29.0,29.87,WSW,237,14.0,20.0,42,-99.99,,,0.00,,2013-04-26 05:22:00,
2013-04-25 22:32:00,51.0,28.0,29.87,SW,233,13.0,23.0,41,-99.99,,,0.00,,2013-04-26 05:32:00,
2013-04-25 22:42:00,51.0,28.0,29.87,SW,233,13.0,23.0,41,-99.99,,,0.00,,2013-04-26 05:42:00,
2013-04-25 22:52:00,52.0,28.0,29.85,SSW,198,12.0,25.0,40,-99.99,,,-99.99,,2013-04-26 05:52:00,
2013-04-25 23:02:00,51.0,27.0,29.87,WSW,240,18.0,25.0,39,-99.99,,,0.00,,2013-04-26 06:02:00,
2013-04-25 23:11:00,51.0,27.0,29.87,WSW,240,18.0,25.0,39,-99.99,,,0.00,,2013-04-26 06:11:00,
2013-04-25 23:21:00,51.0,26.0,29.87,WSW,237,10.0,23.0,38,-99.99,,,0.00,,2013-04-26 06:21:00,
2013-04-25 23:32:00,51.0,26.0,29.87,SW,236,10.0,24.0,38,-99.99,,,0.00,,2013-04-26 06:32:00,
2013-04-25 23:41:00,51.0,26.0,29.87,SW,236,10.0,24.0,38,-99.99,,,0.00,,2013-04-26 06:41:00,
2013-04-25 23:52:00,51.0,26.0,29.86,WSW,237,19.0,23.0,38,-99.99,,,0.00,,2013-04-26 06:52:00,